Previsão horária em Centralina

Hoje, 25 Julho, Domingo

Tempo Temperatura Precipitação Vento Pressão Humidade
00:00 +20°C° 0 mm 3 m/s 720 mmHg 40%
01:00 +19°C° 0 mm 3 m/s 719 mmHg 42%
02:00 +18°C° 0 mm 3 m/s 719 mmHg 44%
03:00 +18°C° 0 mm 3 m/s 719 mmHg 46%
04:00 +17°C° 0 mm 3 m/s 719 mmHg 48%
05:00 +17°C° 0 mm 3 m/s 719 mmHg 50%
06:00 +17°C° 0 mm 3 m/s 718 mmHg 51%
07:00 +19°C° 0 mm 5 m/s 719 mmHg 47%
08:00 +21°C° 0 mm 6 m/s 720 mmHg 42%
09:00 +23°C° 0 mm 7 m/s 721 mmHg 38%
10:00 +26°C° 0 mm 6 m/s 721 mmHg 33%
11:00 +28°C° 0 mm 6 m/s 721 mmHg 29%
12:00 +30°C° 0 mm 5 m/s 720 mmHg 24%
13:00 +32°C° 0 mm 4 m/s 720 mmHg 22%
14:00 +33°C° 0 mm 4 m/s 719 mmHg 20%
15:00 +34°C° 0 mm 3 m/s 718 mmHg 18%
16:00 +31°C° 0 mm 3 m/s 718 mmHg 20%
17:00 +29°C° 0 mm 2 m/s 717 mmHg 23%
18:00 +27°C° 0 mm 2 m/s 717 mmHg 26%
19:00 +26°C° 0 mm 2 m/s 718 mmHg 29%
20:00 +24°C° 0 mm 3 m/s 718 mmHg 32%
21:00 +22°C° 0 mm 3 m/s 719 mmHg 35%
22:00 +22°C° 0 mm 3 m/s 719 mmHg 37%
23:00 +21°C° 0 mm 3 m/s 719 mmHg 39%

Amanhã, 26 Julho, Segunda-feira

Tempo Temperatura Precipitação Vento Pressão Humidade
00:00 +21°C° 0 mm 3 m/s 719 mmHg 41%
01:00 +20°C° 0 mm 3 m/s 718 mmHg 41%
02:00 +20°C° 0 mm 3 m/s 718 mmHg 42%
03:00 +20°C° 0 mm 3 m/s 717 mmHg 43%
04:00 +19°C° 0 mm 3 m/s 718 mmHg 44%
05:00 +18°C° 0 mm 3 m/s 718 mmHg 46%
06:00 +18°C° 0 mm 3 m/s 718 mmHg 47%
07:00 +20°C° 0 mm 4 m/s 719 mmHg 40%
08:00 +22°C° 0 mm 5 m/s 719 mmHg 34%
09:00 +24°C° 0 mm 7 m/s 720 mmHg 28%
10:00 +27°C° 0 mm 6 m/s 720 mmHg 25%
11:00 +29°C° 0 mm 6 m/s 720 mmHg 23%
12:00 +32°C° 0 mm 6 m/s 719 mmHg 21%
13:00 +33°C° 0 mm 5 m/s 719 mmHg 19%
14:00 +33°C° 0 mm 3 m/s 718 mmHg 18%
15:00 +34°C° 0 mm 2 m/s 717 mmHg 16%
16:00 +31°C° 0 mm 2 m/s 717 mmHg 19%
17:00 +29°C° 0 mm 2 m/s 716 mmHg 21%
18:00 +28°C° 0 mm 2 m/s 716 mmHg 23%
19:00 +26°C° 0 mm 2 m/s 716 mmHg 25%
20:00 +25°C° 0 mm 2 m/s 717 mmHg 27%
21:00 +24°C° 0 mm 2 m/s 717 mmHg 28%
22:00 +22°C° 0 mm 3 m/s 718 mmHg 31%
23:00 +22°C° 0 mm 3 m/s 718 mmHg 33%

Depois de amanhã, 27 Julho, Terça-feira

Tempo Temperatura Precipitação Vento Pressão Humidade
00:00 +21°C° 0 mm 3 m/s 718 mmHg 36%
01:00 +21°C° 0 mm 3 m/s 717 mmHg 37%
02:00 +20°C° 0 mm 3 m/s 717 mmHg 39%
03:00 +20°C° 0 mm 4 m/s 717 mmHg 40%
04:00 +20°C° 0 mm 3 m/s 717 mmHg 42%
05:00 +19°C° 0 mm 3 m/s 717 mmHg 44%
06:00 +18°C° 0 mm 3 m/s 717 mmHg 45%
07:00 +21°C° 0 mm 4 m/s 717 mmHg 40%
08:00 +23°C° 0 mm 4 m/s 718 mmHg 34%
09:00 +26°C° 0 mm 5 m/s 719 mmHg 28%
10:00 +29°C° 0 mm 5 m/s 718 mmHg 25%
11:00 +32°C° 0 mm 5 m/s 718 mmHg 21%
12:00 +35°C° 0 mm 4 m/s 718 mmHg 18%
13:00 +35°C° 0 mm 4 m/s 717 mmHg 17%
14:00 +36°C° 0 mm 3 m/s 716 mmHg 15%
15:00 +37°C° 0 mm 3 m/s 715 mmHg 14%
16:00 +35°C° 0 mm 2 m/s 715 mmHg 16%
17:00 +32°C° 0 mm 2 m/s 715 mmHg 18%
18:00 +30°C° 0 mm 1 m/s 715 mmHg 20%
19:00 +29°C° 0 mm 1 m/s 715 mmHg 22%
20:00 +28°C° 0 mm 1 m/s 715 mmHg 23%
21:00 +27°C° 0 mm 2 m/s 715 mmHg 25%
22:00 +26°C° 0 mm 2 m/s 715 mmHg 26%
23:00 +25°C° 0 mm 2 m/s 715 mmHg 27%

28 Julho, Quarta-feira

Tempo Temperatura Precipitação Vento Pressão Humidade
00:00 +25°C° 0 mm 2 m/s 715 mmHg 28%
01:00 +24°C° 0 mm 2 m/s 715 mmHg 29%
02:00 +24°C° 0 mm 1 m/s 715 mmHg 30%
03:00 +23°C° 0 mm 1 m/s 715 mmHg 32%
04:00 +22°C° 0 mm 1 m/s 715 mmHg 33%
05:00 +22°C° 0 mm 1 m/s 715 mmHg 35%
06:00 +21°C° 0 mm 1 m/s 715 mmHg 37%
07:00 +21°C° 0 mm 2 m/s 716 mmHg 42%
08:00 +22°C° 0 mm 3 m/s 717 mmHg 47%
09:00 +23°C° 0 mm 5 m/s 718 mmHg 52%
10:00 +26°C° 0 mm 5 m/s 718 mmHg 48%
11:00 +28°C° 0 mm 5 m/s 718 mmHg 44%
12:00 +29°C° 0 mm 5 m/s 718 mmHg 40%
13:00 +30°C° 0 mm 5 m/s 717 mmHg 39%
14:00 +30°C° 0 mm 5 m/s 717 mmHg 37%
15:00 +32°C° 0 mm 6 m/s 717 mmHg 35%
16:00 +29°C° 0 mm 6 m/s 717 mmHg 38%
17:00 +28°C° 0 mm 5 m/s 717 mmHg 40%
18:00 +26°C° 0 mm 5 m/s 717 mmHg 43%
19:00 +24°C° 0 mm 6 m/s 718 mmHg 45%
20:00 +22°C° 0 mm 6 m/s 719 mmHg 48%
21:00 +20°C° 0 mm 7 m/s 719 mmHg 50%
22:00 +19°C° 0 mm 6 m/s 720 mmHg 53%
23:00 +17°C° 0 mm 6 m/s 720 mmHg 56%

29 Julho, Quinta-feira

Tempo Temperatura Precipitação Vento Pressão Humidade
00:00 +15°C° 0 mm 6 m/s 720 mmHg 59%
01:00 +15°C° 0 mm 6 m/s 720 mmHg 59%
02:00 +14°C° 0 mm 5 m/s 720 mmHg 58%
03:00 +14°C° 0 mm 5 m/s 720 mmHg 57%
04:00 +13°C° 0 mm 5 m/s 720 mmHg 56%
05:00 +13°C° 0 mm 4 m/s 721 mmHg 54%
06:00 +12°C° 0 mm 4 m/s 721 mmHg 53%
07:00 +13°C° 0 mm 4 m/s 721 mmHg 44%
08:00 +14°C° 0 mm 5 m/s 722 mmHg 36%
09:00 +15°C° 0 mm 6 m/s 723 mmHg 27%
10:00 +17°C° 0 mm 5 m/s 723 mmHg 24%
11:00 +19°C° 0 mm 5 m/s 722 mmHg 21%
12:00 +20°C° 0 mm 5 m/s 722 mmHg 19%
13:00 +21°C° 0 mm 5 m/s 722 mmHg 18%
14:00 +21°C° 0 mm 5 m/s 721 mmHg 17%
15:00 +21°C° 0 mm 5 m/s 720 mmHg 17%
16:00 +20°C° 0 mm 4 m/s 720 mmHg 17%
17:00 +19°C° 0 mm 3 m/s 720 mmHg 18%
18:00 +18°C° 0 mm 2 m/s 720 mmHg 19%
19:00 +17°C° 0 mm 2 m/s 720 mmHg 20%
20:00 +16°C° 0 mm 2 m/s 720 mmHg 22%
21:00 +15°C° 0 mm 2 m/s 721 mmHg 23%
22:00 +14°C° 0 mm 2 m/s 721 mmHg 23%
23:00 +14°C° 0 mm 2 m/s 721 mmHg 23%

30 Julho, Sexta-feira

Tempo Temperatura Precipitação Vento Pressão Humidade
00:00 +13°C° 0 mm 2 m/s 721 mmHg 23%
01:00 +12°C° 0 mm 2 m/s 720 mmHg 22%
02:00 +12°C° 0 mm 2 m/s 720 mmHg 22%
03:00 +10°C° 0 mm 2 m/s 720 mmHg 22%
04:00 +10°C° 0 mm 2 m/s 720 mmHg 22%
05:00 +10°C° 0 mm 2 m/s 720 mmHg 22%
06:00 +10°C° 0 mm 2 m/s 720 mmHg 22%
07:00 +13°C° 0 mm 2 m/s 720 mmHg 20%
08:00 +15°C° 0 mm 2 m/s 721 mmHg 18%
09:00 +17°C° 0 mm 2 m/s 721 mmHg 16%
10:00 +21°C° 0 mm 1 m/s 721 mmHg 14%
11:00 +23°C° 0 mm 1 m/s 721 mmHg 13%
12:00 +26°C° 0 mm 1 m/s 721 mmHg 11%
13:00 +27°C° 0 mm 2 m/s 721 mmHg 11%
14:00 +28°C° 0 mm 2 m/s 720 mmHg 12%
15:00 +29°C° 0 mm 3 m/s 719 mmHg 12%
16:00 +27°C° 0 mm 3 m/s 719 mmHg 12%
17:00 +26°C° 0 mm 3 m/s 719 mmHg 13%
18:00 +24°C° 0 mm 3 m/s 719 mmHg 14%
19:00 +21°C° 0 mm 3 m/s 719 mmHg 14%
20:00 +20°C° 0 mm 3 m/s 720 mmHg 15%
21:00 +18°C° 0 mm 3 m/s 720 mmHg 15%
22:00 +18°C° 0 mm 3 m/s 720 mmHg 15%
23:00 +17°C° 0 mm 2 m/s 720 mmHg 15%
Mostrar mais

Necessitamos do seu Consentimento

A Meteoprog e os seus Fornecedores de Serviços podem armazenar e aceder a dados pessoais como cookies, identificadores do dispositivo ou outras tecnologias semelhantes existentes no seu dispositivo e processar estes dados para personalizar conteúdos e anúncios, assim como funcionalidades nas redes sociais e análise de tráfego.

  • Armazenar e/ou aceder a informações no seu dispositivo

    Os cookies, identificadores do dispositivo ou outras informações podem ser armazenados ou acedidos no seu dispositivo, para os fins acima indicados.

  • Anúncios e conteúdos personalizados, medição de anúncios e conteúdos, dados sobre o público-alvo e desenvolvimento de produtos

    Os anúncios e os conteúdos podem ser personalizados com base num perfil. Podem ser adicionados dados adicionais para uma maior personalização dos anúncios e dos conteúdos. A eficácia dos anúncios e dos conteúdos pode ser medida. Podem ser obtidas informações sobre o público que visualizou os anúncios e os conteúdos. Estes dados podem ser usados para desenvolver ou melhorar sistemas, softwares ou a experiência do utilizador.

Ao clicar em "Eu concordo”, permitirá o uso de cookies, identificadores do dispositivo e web beacons mencionados ou outras tecnologias semelhantes. As configurações do navegador do seu dispositivo podem ser alteradas.

Para certos fins, podem ser invocados interesses legítimos ao invés de consentimento. Pode ler mais informação sobre este assunto na nossa Política de Privacidade e Cookies.